Theta_e
293 294 294 293 293 294 294 294 294 294 294 294 294 294 294 294 294 294 294 294 294 294 293 293 293 293 293 293 292 292 291 290 290 289 289 288 288 288 287 287 287 287 287 287 287 287 287 287 287 287 287 287 287 287 286 286 286 286 286 286 285 285 284 283 285 284 281 280 281 281 281 281 280 280 280 279 279 279 279 279 279 279 279 280 280
293 293 293 293 293 293 293 293 293 293 293 293 294 294 294 294 294 294 294 294 293 293 293 293 293 293 293 292 292 291 291 290 290 289 289 288 288 287 287 286 286 286 286 286 286 286 286 286 286 287 287 286 286 286 286 285 285 285 285 285 284 284 284 283 283 284 281 280 280 280 280 280 279 279 279 279 279 279 280 280 279 279 280 281 281
292 292 292 293 293 293 293 292 292 292 292 293 293 293 294 294 294 293 293 293 293 293 293 292 292 292 292 292 291 291 290 290 290 290 289 288 288 287 286 286 286 286 286 286 286 286 285 285 285 286 286 285 285 285 285 285 285 285 285 285 284 284 283 283 283 283 282 280 279 279 279 279 279 279 279 280 280 280 280 280 280 280 280 280 281
291 291 291 292 292 292 292 292 292 292 292 292 292 292 293 293 293 293 293 293 292 292 292 292 292 291 291 291 291 290 290 290 289 289 289 288 288 287 287 286 286 286 286 286 286 286 285 285 285 285 285 285 285 285 285 284 284 284 284 284 284 283 283 282 282 282 282 280 279 279 279 279 280 280 279 280 280 280 281 281 280 280 280 280 281
290 290 291 291 291 291 291 291 291 291 291 291 291 291 292 292 292 292 292 292 292 292 291 291 291 291 291 290 290 290 290 289 289 289 288 288 287 287 287 286 286 285 285 286 286 286 286 285 285 285 285 284 284 284 284 284 284 284 284 283 283 282 282 281 281 281 281 280 279 279 279 279 279 279 279 279 280 280 280 280 280 280 280 281 281
289 289 290 290 290 290 290 291 291 291 291 291 291 291 291 291 291 291 291 291 291 291 290 290 290 290 290 290 290 290 289 289 289 288 288 287 287 287 286 286 286 285 285 285 285 285 286 285 285 285 285 284 284 284 284 283 283 283 283 282 282 281 281 280 280 280 280 280 278 277 277 278 278 279 279 279 279 279 279 279 279 279 280 281 282
289 289 289 289 290 289 289 290 290 291 290 290 290 290 291 291 291 291 291 291 291 290 290 290 290 290 290 290 290 289 289 289 288 288 288 287 287 286 286 285 285 285 285 285 285 285 285 285 285 285 285 285 285 285 284 283 283 283 282 282 281 280 279 279 279 279 278 278 277 276 276 277 277 277 278 278 278 278 277 278 279 279 278 279 280
288 288 288 289 289 289 288 289 289 290 291 291 290 290 290 290 290 291 291 290 290 290 290 290 289 289 289 289 289 289 288 288 288 288 287 287 286 286 286 285 285 284 284 284 284 284 284 284 284 285 285 286 286 286 285 284 283 282 281 281 280 279 279 278 277 277 277 276 276 276 276 276 276 277 277 277 277 277 277 277 278 278 277 278 278
288 288 288 288 289 288 288 288 288 289 290 291 291 290 290 289 289 290 290 290 290 290 290 290 289 289 289 288 288 288 288 288 288 287 287 286 286 286 285 285 285 284 284 284 283 283 283 283 284 284 285 285 285 285 285 285 285 283 282 280 279 279 278 277 276 276 275 275 276 276 276 276 276 277 277 277 278 278 278 277 277 277 277 277 277
287 287 288 288 288 288 288 288 288 288 289 290 291 291 290 290 289 289 289 290 290 290 290 289 289 288 288 288 288 287 287 287 288 288 287 287 286 286 285 285 285 284 284 283 283 282 282 283 283 283 283 283 283 283 284 284 284 285 284 283 281 279 277 276 276 276 275 275 275 276 276 276 277 277 278 278 278 278 277 277 277 277 277 277 277
287 287 287 288 288 288 287 287 287 288 288 288 289 290 291 290 290 289 289 289 289 289 289 289 289 288 288 288 287 287 287 287 287 287 287 287 287 286 285 285 284 284 284 283 283 282 282 282 282 282 282 282 282 282 282 282 282 283 284 284 283 281 279 278 276 275 275 275 275 276 276 277 277 277 278 278 278 277 277 277 277 277 277 277 278
286 286 286 287 287 287 287 287 287 287 287 287 287 288 289 290 290 289 288 288 288 288 288 288 288 288 288 287 287 287 287 287 287 287 287 286 286 286 286 285 284 284 283 283 282 282 281 281 281 281 281 281 281 281 281 281 281 281 282 282 281 281 281 281 280 278 276 276 275 276 277 277 277 278 278 278 277 277 277 277 277 277 277 278 278
285 285 285 286 286 286 286 286 287 287 287 286 286 287 287 288 289 289 288 288 287 287 288 288 288 287 287 287 287 287 287 287 287 286 286 286 286 286 286 285 284 284 283 283 282 282 281 281 280 280 280 280 280 280 280 280 280 280 280 280 279 279 280 281 281 281 279 277 276 276 277 277 278 278 278 277 277 277 277 277 277 277 277 278 277
284 284 284 285 285 285 285 286 287 287 286 286 285 285 286 287 288 288 288 287 287 287 287 287 287 287 287 287 286 286 287 287 286 286 286 286 285 285 285 285 284 284 283 283 282 282 281 281 280 280 279 280 280 280 280 279 279 279 278 278 278 278 278 278 278 279 279 278 277 277 277 278 278 278 277 277 277 277 277 277 277 277 277 276 276
283 283 283 283 283 283 284 285 286 286 286 285 285 285 285 285 286 287 288 287 286 286 286 286 286 286 286 286 286 286 286 286 286 286 285 285 285 286 285 285 284 283 283 282 282 281 281 280 280 280 279 279 279 279 279 279 279 278 278 277 277 277 277 277 277 277 277 278 278 278 278 278 278 277 277 276 277 277 277 277 277 276 276 275 274
282 282 282 282 282 282 283 285 286 285 285 284 284 284 284 284 285 286 287 287 286 286 286 286 286 286 286 286 285 285 286 285 285 285 285 285 286 286 286 285 284 283 283 282 281 281 280 280 280 279 279 279 279 279 279 279 279 278 278 277 277 277 277 277 277 277 277 278 278 278 278 278 277 277 276 277 277 277 277 277 276 275 274 273 272
281 281 281 281 281 280 281 284 285 284 283 283 283 283 283 283 284 284 286 286 286 286 285 285 285 285 285 285 285 285 285 285 285 285 285 285 286 286 286 285 284 283 282 282 281 280 280 280 279 279 279 279 279 279 279 279 279 278 278 277 277 277 277 278 278 278 279 279 278 278 278 277 277 277 277 278 278 277 277 276 275 274 272 271 271
280 280 280 279 279 279 280 283 283 282 281 281 280 280 281 282 283 283 284 285 285 286 285 285 284 284 284 284 284 284 284 284 284 284 284 285 286 286 286 285 284 283 282 281 280 280 279 279 279 279 279 278 278 279 279 279 278 278 278 278 278 277 278 278 279 279 279 279 278 278 278 277 278 278 278 278 277 276 275 275 274 272 271 270 271
279 278 278 278 277 277 279 281 281 279 279 278 278 278 279 281 282 283 283 284 285 285 285 284 284 284 284 284 284 284 284 284 284 284 284 285 286 286 286 285 283 282 281 280 279 279 278 278 278 278 278 278 278 279 280 279 278 278 278 277 277 277 277 278 278 278 278 278 278 278 278 278 278 278 277 276 276 275 274 273 272 271 270 270 270
278 277 276 276 275 276 278 279 277 277 276 275 275 277 278 280 281 282 282 283 283 284 284 284 283 283 283 283 283 283 283 283 283 283 284 285 286 286 286 285 283 282 280 279 278 278 277 277 277 278 278 277 278 280 281 279 278 278 278 278 277 277 277 277 277 277 277 277 277 277 278 278 277 276 275 275 275 274 273 272 271 271 270 270 269
276 275 275 274 275 276 276 275 274 274 273 274 274 276 277 279 280 281 281 282 282 283 283 283 283 283 283 283 282 282 283 283 283 283 283 285 286 286 286 284 283 282 280 279 278 277 277 276 277 277 278 278 279 280 281 280 278 278 278 278 278 278 277 277 276 276 276 277 277 276 276 276 275 274 274 273 273 272 271 271 271 270 270 269 269
274 274 273 273 274 274 273 272 272 272 272 272 273 274 275 276 277 279 281 281 282 282 282 282 282 282 282 282 282 282 282 282 282 282 282 284 286 286 286 284 283 282 280 278 277 277 277 276 276 277 278 278 279 281 282 281 279 277 277 278 278 278 277 276 276 276 276 276 275 275 275 275 274 273 272 272 272 271 270 270 270 270 269 269 269
273 272 272 272 271 271 271 270 270 270 271 271 272 273 274 275 276 278 280 281 281 281 281 281 281 281 281 281 281 281 281 281 281 281 282 283 285 286 286 285 283 282 280 279 278 277 277 276 276 277 278 279 279 281 282 281 279 277 277 277 277 277 277 276 276 276 275 275 274 274 273 273 272 272 272 272 271 270 270 270 270 269 269 268 268
271 270 270 270 269 269 269 269 269 269 269 270 271 272 273 274 276 277 279 280 281 281 281 281 280 280 280 280 280 280 280 280 281 281 281 282 283 285 286 285 284 282 281 279 278 277 277 277 276 277 279 280 280 281 282 282 279 278 277 277 277 277 277 276 275 275 274 273 273 273 272 272 272 272 271 271 270 269 269 269 269 268 268 268 268
270 269 269 268 268 268 268 268 268 268 268 269 270 271 272 274 275 277 279 280 280 280 280 281 280 280 280 280 280 280 280 279 280 280 280 281 282 284 286 285 284 283 281 279 278 278 277 277 277 278 279 280 280 281 282 282 280 278 278 278 278 278 277 276 275 274 273 273 273 272 271 272 272 271 270 269 269 268 268 269 269 269 268 267 267
268 268 268 267 267 267 267 267 267 267 267 268 269 270 271 273 275 277 279 280 280 280 280 280 280 280 280 280 280 280 279 278 278 279 279 280 281 282 285 285 284 282 282 280 279 278 277 277 277 279 280 280 280 281 282 282 281 279 279 279 278 278 277 276 275 274 273 273 272 271 271 272 271 270 269 268 268 268 268 269 269 269 268 267 267
267 266 266 266 266 266 266 266 266 266 267 267 268 269 271 273 274 276 278 279 280 280 280 280 280 280 280 280 280 279 279 278 278 278 278 279 280 281 283 285 284 283 281 280 279 278 278 278 278 279 280 281 281 281 281 282 281 281 280 279 278 278 277 276 275 274 273 272 271 271 272 271 270 268 268 268 268 268 268 268 269 268 268 267 266
266 265 265 265 265 265 265 265 265 265 266 267 268 269 270 272 273 275 277 278 279 280 280 280 280 280 280 280 280 279 279 278 278 278 278 278 279 280 282 284 284 283 281 279 279 278 278 278 278 279 280 281 281 280 280 281 281 281 279 278 278 277 277 275 274 273 273 272 272 272 271 270 269 268 268 268 268 268 268 268 268 268 267 266 265
264 264 264 264 264 264 264 264 264 265 265 266 267 268 269 271 272 274 275 277 278 279 280 280 280 280 280 280 280 280 279 278 278 279 278 278 279 280 281 283 284 283 281 279 278 278 278 278 278 279 280 280 280 279 279 279 278 278 277 277 276 275 275 274 274 273 273 273 272 271 270 268 268 267 267 268 268 268 267 267 267 266 266 265 265
263 263 263 263 263 263 263 263 264 264 265 265 266 267 269 270 272 273 275 276 277 278 280 280 281 281 281 281 281 280 280 280 280 279 279 279 279 279 281 282 283 283 281 279 278 278 278 278 278 279 279 279 277 277 276 275 274 273 273 274 274 274 274 274 274 274 273 272 270 269 269 268 267 267 267 268 268 268 267 267 266 266 265 265 265
262 262 262 262 262 262 263 263 263 264 264 265 266 268 270 271 272 274 275 276 277 278 279 280 281 282 282 282 281 281 281 281 280 280 279 279 280 280 281 282 283 282 281 279 278 278 278 278 278 278 278 277 276 275 275 273 271 271 271 271 273 273 273 273 273 273 271 270 269 269 268 268 267 268 268 268 268 267 267 266 266 265 265 264 265
261 261 261 262 262 262 262 262 263 264 265 266 267 269 269 269 269 270 271 273 275 277 279 280 281 282 282 283 282 282 281 281 280 280 280 280 280 280 281 282 283 282 281 280 278 278 278 278 278 277 276 275 275 274 274 273 271 270 270 270 270 270 271 272 272 271 270 269 269 268 267 267 268 268 267 267 267 267 266 266 265 265 264 264 264
261 261 261 261 261 262 262 263 263 264 265 266 267 267 266 267 267 267 268 270 272 275 278 279 281 282 283 283 283 283 282 281 281 281 280 280 281 281 281 282 283 283 281 280 278 278 278 277 277 276 276 275 275 274 273 273 271 271 270 269 268 268 270 271 270 270 269 269 268 268 267 268 268 267 267 267 266 266 265 265 265 264 264 264 264
261 261 261 261 262 262 262 263 263 264 264 264 264 264 264 265 266 266 268 270 273 276 277 279 280 281 282 283 283 283 283 282 281 281 281 281 281 281 281 282 283 283 282 280 278 278 277 277 277 276 275 275 275 273 273 272 271 271 270 268 268 269 269 269 269 269 268 268 267 267 267 267 267 267 266 266 265 265 264 264 264 264 264 264 264
261 261 261 261 262 262 262 262 263 263 263 263 263 263 264 265 266 267 269 271 274 277 278 279 279 280 281 282 283 283 283 283 282 281 281 281 281 281 282 282 283 283 282 280 278 278 277 277 276 275 275 275 274 273 272 271 270 270 269 268 268 269 269 268 268 268 268 267 267 267 267 267 267 267 266 266 265 264 264 264 264 264 264 264 265
261 261 261 261 261 261 262 262 262 262 262 263 263 263 264 265 266 267 268 270 273 277 279 279 280 280 280 281 282 283 283 283 283 282 281 281 281 281 282 282 282 283 281 279 278 277 277 276 275 275 274 274 273 272 271 270 269 269 269 269 269 269 268 268 268 267 267 267 267 267 267 266 266 266 266 265 265 265 264 264 264 264 264 264 265
260 260 261 261 261 261 261 261 262 262 262 263 263 263 264 265 266 267 268 270 273 276 278 279 279 279 279 280 281 282 282 283 283 282 281 281 281 281 282 282 282 282 281 279 277 276 276 275 275 274 273 273 272 271 270 270 269 269 269 270 270 269 269 268 268 268 267 267 267 267 267 266 266 266 265 265 265 265 265 264 264 264 264 265 265
260 260 260 260 261 261 261 262 262 262 263 263 264 264 265 266 267 268 270 271 272 274 277 278 279 279 279 279 279 280 281 282 283 282 282 281 281 281 281 282 282 282 280 278 276 276 275 274 274 273 272 272 271 270 269 269 269 269 269 269 269 269 268 268 267 267 267 267 267 267 267 266 266 265 265 265 265 265 265 264 264 264 264 265 266
260 260 260 260 261 261 262 262 263 263 264 264 264 265 265 266 266 267 268 269 270 271 274 277 278 278 278 278 278 279 280 281 282 282 281 281 281 281 281 281 281 281 279 276 275 275 274 273 272 272 271 270 269 268 269 269 269 270 270 269 268 267 267 267 267 267 267 267 267 267 267 266 266 266 265 266 266 265 265 265 264 264 264 265 266
260 260 260 260 261 261 262 262 262 263 263 264 264 264 265 265 266 267 267 268 269 271 273 275 277 277 278 278 278 279 280 280 281 281 281 280 280 280 281 281 281 279 276 275 274 273 272 271 271 271 270 269 268 269 270 270 269 269 269 269 268 267 267 267 267 267 267 267 267 266 266 266 266 266 266 266 266 265 265 264 264 265 265 266 266
260 260 260 261 261 261 262 262 263 263 264 264 265 265 266 267 267 268 269 270 271 272 273 275 276 276 277 277 278 278 279 280 280 280 280 280 280 280 280 280 279 276 274 273 272 271 271 271 271 270 269 268 269 270 270 270 269 269 268 268 267 267 267 267 267 267 267 266 266 266 266 266 266 266 266 266 266 265 264 264 264 265 265 265 265
261 261 261 261 261 261 262 262 263 263 264 264 265 265 266 266 267 268 269 271 272 273 274 275 276 276 276 277 278 278 279 279 280 280 279 279 279 279 278 277 275 274 272 271 271 272 272 272 271 270 269 269 270 270 270 269 269 268 268 267 267 267 267 266 266 266 266 266 266 266 266 266 266 266 266 266 265 264 264 264 264 265 265 265 265
262 262 262 262 262 262 262 262 263 263 263 264 264 265 265 266 266 267 269 270 272 274 275 275 276 276 276 277 277 278 279 279 279 278 277 276 276 275 273 272 272 272 271 272 273 274 274 272 271 270 271 271 271 271 270 270 269 268 268 267 267 267 266 266 266 266 266 266 266 266 266 266 266 266 266 266 266 265 264 264 264 264 265 265 265
263 263 263 263 263 262 263 263 263 263 264 264 264 265 266 266 267 268 270 271 273 274 275 275 275 276 276 276 277 277 277 276 276 275 273 272 272 270 270 270 270 271 271 272 273 274 274 273 271 270 270 270 271 270 270 270 269 268 268 268 267 266 266 266 266 266 266 266 266 266 266 266 266 266 266 266 266 265 264 264 264 264 265 265 265
263 263 264 264 264 264 264 264 264 264 264 265 265 266 267 267 268 269 271 273 274 274 275 275 275 275 275 275 275 274 273 272 272 271 270 269 269 268 267 268 270 270 270 271 272 273 273 273 272 270 269 269 269 269 269 268 268 268 268 268 267 267 266 266 266 266 266 265 265 265 265 265 266 266 267 267 266 265 264 264 265 265 265 265 265
263 263 264 265 265 266 266 266 266 265 265 266 266 267 268 269 270 271 272 273 274 274 273 273 273 273 272 272 271 271 269 269 268 268 268 267 266 266 266 267 269 270 270 270 271 272 272 272 271 270 269 268 268 268 267 267 267 267 267 266 266 266 266 265 265 265 265 265 265 265 265 265 266 266 266 266 266 265 264 264 265 265 265 265 266
263 263 264 264 265 266 266 267 267 267 267 267 268 269 269 270 271 271 271 271 271 270 270 270 269 269 268 268 268 267 266 266 266 266 265 265 265 265 266 267 268 269 268 269 270 271 271 270 270 269 269 268 267 267 267 267 266 266 266 265 265 265 265 265 265 265 265 265 265 265 265 265 266 266 266 266 265 265 265 265 265 265 265 266 266
262 263 263 264 264 265 265 265 266 266 267 267 268 268 268 268 268 268 268 268 267 267 267 267 266 266 266 266 265 265 265 264 264 264 263 263 263 264 266 268 269 268 268 268 269 269 269 269 268 268 268 267 267 267 266 266 266 265 265 265 264 264 264 264 264 264 264 264 264 265 265 266 266 266 266 265 265 265 265 265 265 266 266 266 265
262 262 262 263 263 264 264 264 265 265 265 266 266 266 266 266 266 265 265 265 265 265 265 265 265 265 264 264 264 264 264 264 263 263 263 262 262 263 266 268 269 268 268 268 268 267 267 267 267 267 267 267 266 266 266 265 265 265 265 264 264 264 264 264 264 264 264 264 264 265 265 265 265 265 265 265 265 265 265 266 266 266 266 265 265
261 261 261 262 262 263 263 263 264 264 264 265 265 265 264 264 264 264 264 264 264 264 264 264 264 264 263 263 263 263 262 262 262 261 261 260 260 263 266 267 267 267 267 267 266 266 266 266 266 266 266 265 265 265 265 265 264 264 264 264 264 264 264 264 264 264 264 264 264 264 264 264 264 264 264 264 265 265 266 266 266 266 265 265 265
260 260 260 261 261 261 262 262 262 263 263 263 263 263 263 263 263 263 263 263 263 263 263 263 263 263 263 262 262 261 261 260 260 260 260 261 262 264 266 266 266 266 266 266 266 266 266 265 265 265 265 265 264 264 264 264 264 264 264 264 264 264 264 264 264 264 264 264 264 264 264 263 263 264 264 265 265 266 266 266 266 265 265 265 265
Wind_Speed
35 33 29 24 21 21 21 22 24 26 29 30 32 33 34 34 35 35 36 37 37 38 39 40 41 42 43 45 46 47 47 47 47 46 47 47 47 46 46 46 47 47 47 46 46 46 45 45 43 42 41 39 39 38 37 36 34 33 31 30 29 27 25 21 11 6 12 19 19 19 19 18 18 17 16 15 13 11 10 8 6 6 7 9 9
35 34 32 30 27 24 22 22 22 23 26 29 32 34 34 35 35 35 36 37 37 38 39 40 41 42 43 45 46 47 48 48 48 48 49 49 48 47 46 47 47 47 46 46 47 46 45 44 43 43 41 40 40 39 39 38 36 35 34 32 32 30 28 26 19 11 11 16 19 18 18 17 17 15 14 13 11 9 7 4 3 5 7 9 10
34 33 33 33 32 30 28 25 22 22 23 26 30 33 34 35 35 36 37 37 37 38 39 40 41 42 43 44 45 46 47 48 49 50 51 51 49 48 48 48 50 49 48 49 48 47 45 45 44 44 42 41 40 40 39 39 38 36 36 34 33 32 30 29 25 18 15 16 18 18 16 16 16 13 12 11 9 7 5 3 4 5 7 9 10
35 34 33 32 32 32 32 30 26 23 23 24 26 29 32 33 34 36 37 37 37 38 39 39 40 41 42 44 44 45 47 48 49 50 52 52 52 51 50 50 51 51 51 51 50 49 49 47 46 45 44 43 42 41 40 40 39 38 36 36 34 33 32 31 28 23 19 16 16 16 15 14 13 12 10 10 8 6 5 5 6 7 9 9 10
35 35 34 33 33 33 33 32 31 29 27 26 25 27 29 30 31 33 34 36 37 37 38 38 39 40 42 43 44 45 47 48 49 50 51 51 51 52 52 52 52 52 51 52 52 53 53 52 50 48 47 46 44 44 43 42 41 40 38 37 36 34 33 33 30 25 21 18 16 14 14 13 12 11 9 7 6 5 5 6 7 9 10 10 11
31 32 33 33 34 35 36 35 34 33 31 29 28 27 28 28 29 30 31 33 35 36 37 38 39 41 43 43 44 45 45 46 48 50 50 49 49 49 49 51 52 53 52 52 53 55 55 54 52 51 51 51 49 48 46 45 43 42 41 39 38 36 34 32 30 26 23 20 16 14 13 12 12 9 7 6 5 5 5 8 10 10 12 13 12
29 29 29 28 29 32 35 36 36 36 34 33 31 29 28 28 29 29 30 32 33 34 35 37 39 41 42 43 44 44 43 45 47 48 49 49 48 47 47 48 50 51 53 53 53 54 55 54 53 54 55 54 53 51 49 47 45 44 43 41 39 36 34 31 29 26 23 20 17 15 12 11 10 9 6 5 5 6 7 8 9 10 11 12 13
30 30 29 28 28 30 32 34 36 37 37 36 35 32 30 29 29 30 30 31 33 34 35 36 38 39 41 42 42 42 43 45 47 47 47 47 47 46 46 46 48 50 50 50 51 52 53 53 53 55 56 56 55 54 52 50 48 45 44 42 39 37 35 32 29 26 24 21 18 15 11 8 8 8 7 6 7 9 10 9 8 9 8 10 14
31 31 30 29 29 30 31 32 34 36 37 38 38 36 34 32 29 29 30 31 32 33 35 36 37 38 39 40 40 41 42 45 46 46 46 45 45 46 46 46 46 47 46 45 46 49 50 52 52 53 55 54 53 53 52 51 50 48 46 44 41 39 36 34 31 29 25 21 17 14 10 8 9 10 10 12 12 11 10 10 10 10 9 11 16
29 29 30 29 30 31 31 31 32 34 35 36 37 38 37 36 33 31 30 30 32 33 35 36 37 38 38 38 39 40 43 45 46 46 47 47 46 45 45 46 45 45 43 42 43 45 48 49 50 50 51 51 51 50 50 50 49 49 48 47 45 42 39 36 34 32 28 24 20 16 11 10 12 14 14 14 14 11 10 10 11 10 10 11 15
27 27 28 29 30 32 33 34 34 34 34 35 36 38 38 38 36 34 32 30 31 33 34 36 37 38 38 38 40 41 43 45 45 47 49 50 48 46 45 45 45 44 43 42 43 44 46 46 46 46 47 48 48 47 48 48 48 47 45 45 45 44 41 39 37 35 33 28 23 19 14 13 14 15 14 14 13 12 11 11 11 11 10 10 11
26 26 26 26 28 30 32 34 35 35 35 35 35 36 37 37 37 36 34 32 31 31 33 35 36 37 38 39 40 42 43 44 45 46 47 49 50 48 45 44 44 44 44 44 44 44 44 44 44 44 45 46 46 45 45 46 46 45 43 42 43 43 41 38 35 35 35 32 26 22 19 15 14 15 16 15 13 12 12 13 12 12 11 11 11
28 27 26 25 26 28 30 31 33 34 35 35 35 34 34 35 35 35 34 33 31 30 31 33 35 36 37 38 40 42 43 43 43 44 45 47 49 49 46 43 43 44 44 45 44 44 44 44 44 43 43 44 44 44 44 43 42 42 41 40 41 41 39 35 32 31 33 33 31 29 24 17 15 16 16 15 13 13 13 14 13 11 10 11 12
29 29 28 27 27 28 29 29 30 31 33 34 35 34 33 33 33 33 33 33 31 30 31 32 34 35 36 38 39 40 41 42 41 42 43 45 46 48 46 44 43 43 44 45 44 45 45 46 46 45 43 44 45 45 45 43 41 40 39 38 40 40 37 34 30 28 29 29 31 31 25 19 16 15 15 15 14 13 13 13 12 10 10 11 13
27 27 28 29 30 30 30 30 29 30 31 32 33 33 33 33 33 33 32 31 31 31 31 31 33 34 35 37 38 39 40 39 39 40 41 42 43 44 44 44 43 42 42 43 43 45 46 47 47 47 46 46 47 47 47 45 42 40 38 37 38 38 36 34 32 30 28 27 28 26 22 18 15 14 15 15 13 12 13 13 12 11 12 15 19
25 25 26 28 30 31 32 31 30 30 31 32 32 32 32 32 33 33 32 31 31 30 31 32 32 33 34 35 36 38 38 37 37 38 39 39 39 39 41 42 42 40 40 40 41 43 44 46 47 47 47 48 48 47 48 47 43 40 38 36 35 35 35 33 31 30 27 25 23 21 18 16 15 15 15 14 13 14 15 15 14 14 13 14 19
24 24 25 27 29 31 31 30 31 32 32 31 32 33 33 33 33 32 31 31 31 30 31 32 32 33 33 34 35 37 37 36 35 36 37 37 37 37 38 39 39 39 39 38 39 41 43 45 46 46 46 48 47 46 46 47 44 40 38 35 32 32 31 29 26 24 22 21 20 19 17 15 15 16 16 14 13 14 16 15 14 13 11 9 9
24 24 26 27 29 31 29 28 29 32 32 32 33 35 36 35 34 32 31 31 31 31 31 31 32 32 33 34 34 36 37 36 34 34 35 35 37 38 37 36 37 37 36 35 36 38 40 43 45 46 45 46 46 43 43 46 45 40 38 36 32 31 31 29 27 23 20 19 19 19 17 15 16 17 17 16 15 15 16 15 13 12 11 10 7
24 25 27 29 31 31 28 27 28 30 32 34 36 36 36 35 35 34 33 32 32 32 31 30 31 32 32 33 34 34 35 34 33 33 33 33 36 38 36 35 35 34 33 32 32 34 37 39 42 45 45 44 43 40 39 44 45 42 40 37 34 32 32 32 31 27 23 22 21 20 20 19 20 21 20 19 19 19 18 16 14 13 14 13 9
25 26 29 32 33 31 27 27 30 31 33 36 38 37 35 34 35 35 34 33 32 32 31 30 31 32 31 31 32 33 33 33 32 33 32 32 36 38 37 36 35 33 32 31 31 32 35 36 39 42 41 41 41 38 36 40 43 43 41 37 34 34 33 32 31 29 27 26 23 23 23 23 22 22 21 21 22 21 18 15 13 12 13 13 10
27 28 31 33 32 31 30 31 33 35 36 36 35 36 35 34 35 36 35 34 32 32 31 30 30 32 32 31 31 32 32 31 31 32 32 32 35 38 38 37 36 33 31 31 33 34 35 36 38 37 36 38 40 38 35 36 39 42 41 38 36 34 32 31 29 28 28 26 23 23 24 24 23 22 22 22 21 18 14 11 10 10 10 11 11
27 29 32 32 31 33 35 36 37 38 38 35 33 36 38 37 36 36 35 34 32 32 32 30 29 31 31 30 31 32 32 31 30 31 32 32 34 38 40 40 37 35 32 31 33 34 35 36 37 36 37 40 41 39 36 35 36 39 40 38 34 31 29 29 28 27 28 26 23 22 23 23 22 22 23 22 19 15 12 10 9 9 9 10 11
28 30 31 32 33 36 37 38 38 38 38 36 34 37 40 38 36 35 34 33 31 30 30 28 27 28 29 29 30 31 31 31 30 30 32 33 34 37 40 40 38 37 35 33 33 34 34 35 37 37 37 40 41 40 38 35 35 38 39 36 32 28 27 28 29 28 28 26 24 22 22 23 24 24 24 22 17 13 11 8 7 7 7 9 10
29 31 32 33 35 37 37 38 38 37 37 36 35 36 38 37 34 34 33 31 28 27 27 26 23 24 26 26 27 28 29 30 30 31 32 33 34 35 37 38 39 39 37 34 34 35 35 35 37 37 37 39 40 40 39 36 34 36 37 34 30 28 27 29 30 29 26 24 23 21 20 24 26 26 24 19 14 11 9 7 7 7 9 10 10
31 34 35 36 36 36 36 38 38 37 36 35 32 33 36 34 32 31 30 29 27 25 25 24 23 23 23 23 24 25 27 28 30 31 32 33 34 35 35 35 37 40 39 34 31 32 34 36 36 36 37 38 39 39 39 37 33 34 35 32 30 30 30 30 31 29 25 24 23 21 21 25 26 24 19 14 12 10 8 7 7 8 9 10 10
33 35 37 38 37 36 37 38 38 38 37 35 33 33 34 33 32 30 28 27 27 26 25 24 22 22 22 23 23 24 24 26 29 30 30 31 32 34 35 34 35 38 39 37 32 30 31 34 35 35 36 36 37 38 38 36 33 32 34 34 33 35 34 33 33 31 27 25 22 21 23 25 23 19 16 14 12 10 7 7 8 8 8 8 10
34 36 38 39 38 37 36 36 37 38 38 37 35 34 33 32 31 30 28 26 25 24 24 23 22 20 21 22 23 22 23 25 26 26 27 29 30 31 34 35 34 35 35 35 33 31 30 32 34 34 34 34 36 36 36 35 33 33 34 35 35 36 36 36 35 31 26 24 23 22 23 22 19 17 16 13 10 8 6 6 7 7 7 8 10
36 38 40 41 40 38 37 36 36 37 37 36 36 36 35 34 32 32 32 29 26 24 24 23 23 23 22 21 21 20 21 25 27 27 28 30 30 30 31 32 33 33 33 32 33 32 32 33 33 32 32 32 33 33 32 32 32 33 35 35 35 35 35 34 31 27 24 24 24 23 22 20 19 17 15 11 8 6 5 5 5 6 7 8 8
39 41 40 39 39 38 36 35 35 34 35 36 37 38 38 36 35 36 37 34 31 29 28 27 28 29 26 25 22 19 20 26 31 32 32 32 32 32 32 31 33 34 34 33 33 32 31 32 32 31 30 29 28 27 28 28 28 30 34 36 35 34 34 32 31 28 26 24 23 22 22 20 19 16 12 9 7 5 3 3 4 6 7 7 7
38 39 37 35 35 35 35 35 35 34 34 34 35 37 38 37 35 36 37 36 34 33 33 35 36 33 30 30 30 27 28 31 32 31 31 31 32 34 34 33 33 33 33 34 34 32 30 30 30 31 30 28 25 25 26 27 27 27 29 32 34 34 33 32 31 28 26 24 23 23 22 20 17 14 11 9 6 4 3 3 4 5 7 8 8
34 34 33 32 33 33 34 35 33 31 32 32 30 30 31 30 28 30 32 33 34 36 37 38 40 38 34 34 34 33 34 33 30 29 29 29 30 33 34 34 33 32 34 35 33 30 29 28 27 30 30 29 28 29 30 29 27 27 27 28 31 32 31 30 29 27 25 24 23 22 21 19 16 13 10 8 6 4 3 3 4 5 8 9 10
32 33 33 33 33 32 31 32 31 29 29 27 24 21 21 22 25 30 33 33 34 36 37 37 39 39 38 37 35 33 32 30 27 27 27 27 30 32 34 36 36 34 37 38 32 28 27 27 26 27 29 28 28 30 32 30 28 29 29 27 26 27 30 30 29 27 26 25 24 23 21 18 15 12 10 8 5 4 3 3 5 7 9 10 11
33 34 34 33 32 30 29 29 28 26 24 22 20 21 23 22 22 29 35 35 33 34 35 35 36 36 36 36 36 34 33 30 26 26 26 27 30 31 33 36 37 36 39 37 31 27 27 26 26 27 28 29 30 32 34 33 32 32 31 27 24 26 29 29 27 26 26 25 24 23 21 18 15 12 10 8 6 4 3 4 6 8 10 10 10
36 36 35 34 32 31 29 29 29 28 28 28 28 28 29 27 25 27 29 27 24 24 27 30 31 32 32 34 34 34 34 30 27 27 27 28 29 31 32 35 36 39 42 38 30 27 27 26 25 27 28 29 30 32 33 34 35 34 31 27 27 29 29 28 27 27 26 25 24 22 20 17 15 13 11 9 7 5 4 5 7 8 9 10 9
38 37 36 37 36 35 34 33 33 32 31 31 30 29 29 28 28 27 25 21 18 18 20 23 25 27 29 31 31 32 33 31 28 27 28 28 29 30 30 29 30 34 38 36 31 29 29 27 26 28 30 30 31 32 33 32 34 34 31 29 31 33 31 29 29 28 27 26 24 22 19 17 15 13 11 9 7 6 6 7 7 8 10 10 10
37 36 36 37 37 36 34 33 32 32 30 30 30 30 29 28 27 26 27 27 25 21 19 18 19 21 24 27 29 29 30 30 29 27 27 28 28 29 28 26 25 27 29 30 29 30 29 29 29 30 31 32 32 32 33 33 33 34 33 34 35 35 33 32 31 29 27 25 23 21 19 17 15 13 10 8 7 6 6 6 7 8 10 11 12
35 35 35 35 35 35 34 33 32 32 32 31 30 29 28 28 27 27 26 26 25 22 19 18 17 17 18 22 26 27 27 28 28 28 27 27 28 29 29 26 24 24 24 24 26 27 27 28 30 31 32 32 32 31 32 33 33 33 33 34 34 33 32 32 30 28 27 25 22 21 19 17 14 12 10 9 8 6 6 6 7 9 10 11 12
35 34 34 34 34 32 31 31 30 30 29 28 27 26 25 25 24 23 22 22 22 21 19 17 16 15 15 17 22 24 24 24 25 26 27 27 27 28 29 27 24 23 23 24 26 27 27 27 28 30 31 32 31 31 32 34 35 35 34 34 32 30 30 29 27 26 25 24 22 21 19 16 14 12 11 9 7 6 6 6 7 9 11 11 11
33 33 33 33 31 29 28 28 27 25 24 24 23 23 23 21 21 22 22 22 22 22 20 17 14 14 15 16 18 20 19 18 19 20 22 24 25 25 26 25 23 22 23 25 27 28 27 26 27 29 30 30 30 31 34 36 37 36 35 34 32 30 29 28 27 26 24 22 21 20 18 16 15 13 10 8 7 6 6 6 8 9 10 10 11
32 31 31 30 28 27 27 26 25 23 22 22 23 23 23 22 22 22 22 21 21 21 20 18 16 15 17 18 18 17 16 16 17 18 19 21 23 24 23 22 20 21 24 27 28 28 27 28 29 30 29 29 31 34 37 38 38 35 34 33 32 30 29 27 26 24 22 21 20 19 18 16 15 12 10 8 6 5 6 7 8 9 10 11 13
32 30 29 28 26 25 25 24 24 23 22 22 22 21 21 21 21 21 20 19 19 18 18 18 17 18 19 20 20 19 18 17 17 18 18 19 21 21 20 19 20 23 26 27 28 29 30 31 31 31 30 30 33 36 38 38 36 34 33 32 31 29 27 25 23 22 20 20 19 18 17 16 14 12 9 7 5 5 6 8 9 11 13 14 15
30 29 29 27 26 23 22 22 23 23 22 22 22 22 22 22 22 21 20 19 18 17 17 17 18 20 20 20 20 21 20 19 18 17 17 17 18 17 16 18 22 26 29 30 31 32 33 33 33 33 33 34 36 38 37 36 35 33 32 31 29 27 25 23 21 20 19 18 18 18 17 15 13 10 8 6 5 6 7 9 11 12 14 15 16
29 29 29 29 28 25 23 23 23 22 21 21 22 22 23 22 22 22 21 21 20 18 16 15 16 17 17 18 19 21 20 17 15 14 14 15 15 15 16 20 24 27 30 33 35 36 37 36 34 33 34 36 37 37 36 34 32 31 30 28 26 24 23 22 20 20 19 18 18 18 16 14 12 10 7 6 6 6 7 9 11 13 14 17 18
28 27 27 28 28 27 26 24 22 20 21 21 21 21 22 21 20 20 19 18 18 17 15 14 14 14 14 14 15 14 11 11 14 15 15 17 18 19 21 24 27 29 32 34 36 37 36 35 33 33 34 34 33 32 30 29 27 27 27 25 23 22 21 20 19 18 18 17 17 17 16 14 12 10 7 6 6 6 7 9 11 14 16 18 17
25 24 24 24 24 25 25 24 21 19 18 18 18 18 18 19 19 19 18 17 15 13 12 11 10 9 8 7 7 7 11 15 17 18 18 20 21 21 22 25 29 31 32 32 33 33 33 33 35 36 35 32 30 28 26 25 24 22 21 20 19 18 17 16 16 15 15 15 15 15 15 13 11 9 6 5 5 6 8 10 13 15 17 18 17
23 23 22 21 21 21 22 20 19 19 17 16 16 17 17 17 17 17 16 13 9 5 3 3 5 6 7 8 10 13 15 17 19 21 21 22 22 22 23 25 29 31 32 32 32 32 33 34 36 37 35 32 29 26 25 23 21 19 17 16 15 14 14 14 14 14 13 13 13 13 13 12 10 8 6 5 6 8 10 13 15 17 18 18 17
23 22 21 20 19 19 19 18 13 10 10 10 10 10 10 8 6 4 1 2 5 7 9 10 10 11 12 13 14 16 17 18 20 22 22 21 23 26 28 30 32 34 35 35 35 34 34 34 33 32 31 29 27 25 23 22 20 18 17 16 15 14 14 15 14 13 12 12 11 11 10 10 9 7 5 6 8 10 13 16 17 17 17 17 17
23 22 21 20 19 19 19 20 18 15 13 10 9 10 10 10 11 11 12 13 14 14 14 15 15 16 17 17 17 18 19 20 21 22 22 23 24 27 32 35 37 38 38 37 35 34 32 31 29 28 27 26 24 23 22 20 18 17 16 15 14 14 14 13 13 12 12 11 11 10 9 9 8 6 6 8 10 13 15 17 16 16 18 18 18
23 22 22 21 21 20 20 20 19 19 18 16 15 15 16 17 17 16 16 17 17 17 18 18 18 18 19 19 19 20 22 23 25 25 25 25 25 29 35 39 40 40 39 37 34 32 30 28 26 25 24 22 21 20 19 17 16 15 14 13 13 12 12 12 12 11 10 10 10 9 9 8 7 7 9 11 13 15 16 16 16 18 19 18 17
23 23 23 22 23 22 22 22 21 21 20 18 17 17 17 18 18 18 18 18 18 18 18 19 19 19 19 20 21 22 23 25 27 27 27 27 29 33 38 40 39 39 37 35 33 31 29 27 25 23 21 20 19 17 16 15 13 12 12 11 11 10 10 10 9 9 9 9 10 10 9 8 8 10 13 14 15 16 17 16 17 19 19 17 18
24 24 24 24 24 24 24 24 24 23 22 20 18 18 18 19 19 19 20 20 19 19 18 18 19 19 19 19 20 21 23 25 26 27 30 33 35 37 38 38 37 36 35 33 31 29 26 24 23 21 19 18 16 15 14 12 11 10 10 9 9 8 8 7 8 8 9 9 9 9 8 8 12 14 15 15 17 17 17 16 17 19 19 18 20
Wind_Direction
11 9 5 356 341 327 316 303 292 283 277 270 264 259 256 253 250 248 245 242 239 236 234 231 229 228 226 225 224 223 222 221 220 220 219 219 219 219 218 217 216 216 216 215 215 215 215 214 214 213 211 210 211 211 211 211 211 211 212 211 210 211 210 207 200 157 173 188 193 196 200 207 215 225 237 251 257 254 257 272 298 327 341 342 347
7 7 8 6 359 350 339 326 312 298 285 277 271 266 262 258 255 252 249 246 242 238 235 233 231 229 227 226 224 223 222 221 220 219 219 219 218 217 217 216 215 214 214 215 214 214 213 213 212 211 210 210 210 210 210 209 209 209 210 209 209 210 209 207 202 181 166 183 193 200 207 216 226 234 242 250 253 251 257 279 319 333 342 343 342
5 5 6 8 7 4 358 348 333 314 296 285 278 273 269 265 260 255 252 249 245 242 238 235 232 230 228 226 224 222 221 220 220 219 219 218 217 216 216 216 215 213 213 214 214 212 211 211 211 210 208 208 208 209 209 209 209 208 209 209 209 209 209 207 206 197 179 181 195 206 213 221 229 235 242 252 260 267 276 306 333 335 340 339 336
3 3 4 5 7 7 4 359 351 335 317 302 291 284 278 272 266 260 256 252 248 245 242 237 234 231 228 227 224 222 221 220 219 220 219 218 217 216 216 216 215 214 214 214 213 212 211 210 210 209 207 205 206 207 208 207 208 208 209 210 209 210 209 208 209 206 196 190 200 213 219 224 232 241 252 260 265 274 292 310 321 325 327 329 329
1 2 2 2 4 5 4 2 358 350 338 325 313 301 291 281 273 266 260 254 250 247 243 239 235 232 230 228 226 225 223 221 220 220 220 219 218 217 216 216 216 215 215 215 214 213 213 211 210 208 206 204 204 205 206 206 206 206 207 209 208 208 208 207 208 208 205 202 204 215 227 236 243 250 257 264 270 285 302 309 313 319 322 321 324
0 0 1 1 1 1 1 360 358 354 349 341 332 321 309 297 286 276 267 260 254 249 245 240 236 234 233 231 229 227 225 222 221 221 220 219 219 218 217 216 216 215 215 215 215 215 214 212 211 208 206 205 204 205 205 205 204 205 206 207 206 206 205 205 206 205 207 210 211 217 229 241 250 256 256 254 265 288 305 309 310 313 317 317 321
359 359 359 359 359 358 358 357 355 354 351 347 343 336 326 314 302 291 281 271 262 254 248 244 240 238 236 234 232 229 227 225 224 223 221 220 218 218 218 217 217 216 216 215 215 216 215 212 210 210 209 208 208 207 205 203 203 204 205 205 203 201 200 200 201 200 203 207 212 219 225 232 245 253 247 232 241 258 272 287 297 302 308 309 309
356 356 356 356 356 355 354 354 354 353 352 350 348 344 337 327 315 304 293 280 270 262 256 251 246 243 239 237 234 231 228 226 225 223 222 221 219 218 218 218 218 218 217 216 216 215 214 212 212 213 213 212 211 210 208 205 202 202 203 203 201 198 197 196 195 195 197 201 207 214 217 221 231 234 224 208 219 235 235 240 263 281 287 285 283
353 352 352 352 351 350 351 351 351 352 352 351 349 346 341 335 326 314 302 289 279 271 263 257 252 247 242 239 237 233 230 228 227 224 222 220 219 219 218 218 219 219 218 218 217 216 215 214 213 214 214 212 212 212 212 210 206 203 202 200 199 198 196 193 191 189 189 193 199 202 203 210 211 209 210 208 212 219 216 221 243 258 263 267 270
350 349 348 347 346 346 347 347 348 349 349 348 347 346 343 340 333 323 310 297 286 277 268 260 254 249 245 242 238 234 232 231 229 227 224 222 220 219 219 219 219 218 219 219 218 217 217 215 214 214 213 211 210 210 210 210 210 209 207 204 201 198 194 191 190 189 186 187 191 189 190 205 206 201 205 209 208 209 212 219 229 236 244 255 264
345 344 343 343 343 344 344 344 344 345 345 345 345 344 342 340 337 330 319 306 293 281 271 262 256 250 246 243 240 237 235 234 231 229 227 224 221 219 219 219 219 218 218 218 217 217 217 215 214 213 212 210 209 208 208 207 208 209 210 210 207 203 198 193 190 188 187 188 189 186 189 203 205 200 203 205 203 206 215 219 220 226 230 235 253
341 340 340 340 340 341 341 340 340 340 341 341 342 341 340 338 336 333 325 314 301 287 273 264 257 251 247 244 242 239 238 237 234 231 229 226 223 221 220 219 219 218 218 218 217 216 215 213 213 212 212 210 208 206 206 207 207 207 208 209 208 208 209 207 203 197 192 189 188 190 193 197 198 199 201 200 199 206 214 217 222 226 226 230 246
337 336 337 339 339 338 337 336 335 334 335 336 336 337 336 334 333 331 326 320 308 293 278 268 260 253 248 245 243 241 241 240 237 234 231 228 225 222 221 220 220 219 219 218 217 216 213 211 210 211 211 209 207 206 204 203 204 206 207 207 207 208 210 213 216 213 204 196 193 194 194 191 193 199 201 197 198 205 211 221 228 225 223 236 249
333 333 334 335 336 336 335 333 330 329 330 331 331 331 331 330 329 327 325 321 312 298 285 274 264 257 251 247 245 244 243 241 238 236 233 230 226 224 222 222 221 221 220 219 217 216 214 211 208 208 207 206 206 205 202 200 199 200 201 203 204 206 207 208 209 211 211 207 203 200 196 191 192 196 198 197 201 208 216 225 226 219 228 250 262
328 329 330 331 333 334 333 330 327 326 327 327 327 326 325 325 325 324 322 317 311 302 291 280 270 263 256 250 248 247 245 243 240 237 234 230 227 224 222 223 223 223 222 220 218 216 214 212 209 207 206 205 205 203 201 198 196 194 196 198 200 202 204 205 203 203 205 208 207 204 196 190 193 197 200 203 207 217 228 229 229 235 252 268 276
323 324 325 326 329 330 330 327 324 324 325 324 323 321 320 319 319 320 318 314 310 303 293 284 275 268 262 255 250 249 248 245 241 238 234 230 225 222 222 222 223 223 223 221 219 217 215 213 210 208 207 206 205 203 202 198 193 191 191 193 196 198 199 201 203 203 203 203 205 203 194 191 200 204 204 204 208 221 230 233 241 253 262 276 282
317 318 319 321 323 325 325 322 320 320 321 321 320 318 316 314 313 314 312 310 307 302 295 288 280 272 265 258 253 250 249 246 242 239 235 227 222 220 221 221 222 223 223 221 219 217 215 213 211 209 208 208 205 202 200 197 192 189 189 188 189 193 195 196 196 198 201 202 205 206 200 196 202 206 207 209 213 225 230 232 244 254 255 266 274
312 314 315 316 319 320 319 316 315 316 317 316 315 314 313 310 309 308 307 303 301 298 294 288 281 275 267 260 256 253 251 248 242 238 234 225 219 219 219 219 221 223 222 220 218 216 215 214 212 209 208 207 203 198 196 195 192 188 186 185 185 189 191 190 187 189 196 203 209 210 205 200 203 207 210 209 210 220 229 235 249 256 250 247 241
307 310 311 312 315 316 313 310 310 312 311 311 311 310 308 306 305 305 303 300 297 295 291 285 280 275 269 264 259 254 253 250 243 236 230 221 218 219 218 217 219 220 218 216 215 214 213 212 211 210 209 207 201 196 194 195 193 189 186 184 185 188 191 191 187 187 192 199 205 206 204 203 206 208 212 212 212 222 234 246 256 254 249 247 239
304 306 308 310 312 311 308 306 307 307 307 307 308 307 305 303 302 302 300 297 294 291 287 282 278 276 273 267 262 256 252 250 245 238 229 219 216 218 218 217 216 215 213 210 209 210 210 210 209 208 206 205 200 195 195 196 195 192 188 187 188 190 191 191 189 189 192 196 199 203 203 204 207 212 218 220 221 229 240 247 251 246 244 248 240
302 304 306 308 307 305 304 304 305 305 304 305 305 303 301 300 299 299 297 295 292 289 285 281 277 275 273 269 265 260 255 251 246 242 234 222 217 217 218 218 216 212 209 207 207 206 205 205 204 201 200 201 199 195 194 196 196 195 193 193 194 193 191 188 187 190 195 196 198 204 205 207 213 220 223 225 229 236 241 239 239 240 239 242 238
299 302 303 303 301 300 301 302 303 304 304 304 303 300 299 299 297 296 294 291 289 286 283 279 275 273 272 268 265 262 258 253 248 243 237 228 221 219 219 219 217 212 207 206 207 206 204 203 201 197 196 198 198 195 193 194 195 197 197 196 195 193 189 186 184 188 195 197 199 203 206 211 219 224 226 231 238 240 235 229 229 237 238 238 238
299 300 299 298 297 298 299 300 301 301 301 301 301 298 297 297 295 293 291 288 286 282 279 276 271 269 268 266 264 261 258 253 248 243 239 232 226 224 223 220 217 212 209 209 208 206 204 203 201 197 195 196 196 195 194 192 193 197 197 195 192 189 186 184 183 187 193 197 198 202 207 214 219 223 228 235 238 231 225 227 232 241 242 235 236
299 298 297 296 296 297 297 298 298 297 297 298 297 295 294 294 292 290 287 284 281 277 275 272 267 264 264 264 263 261 257 253 247 243 240 236 231 228 225 221 217 215 213 212 211 207 203 202 201 197 195 195 195 195 194 192 192 194 193 189 184 181 180 181 183 187 190 194 197 202 209 214 218 225 232 233 229 220 219 228 237 242 245 242 243
298 296 296 295 295 296 296 296 295 294 294 294 292 290 290 290 289 286 283 280 275 272 271 268 262 260 260 261 261 259 256 251 245 241 238 236 233 231 228 221 215 215 215 213 211 209 205 203 200 195 193 194 194 194 194 192 189 187 185 182 179 179 180 182 185 187 190 195 200 204 209 215 221 229 232 225 218 218 221 233 247 252 256 262 268
296 295 294 294 295 296 296 295 294 294 294 292 289 286 284 284 283 281 278 273 268 266 266 264 260 258 258 258 257 256 253 247 243 239 235 232 231 231 231 224 212 210 214 213 210 208 204 200 197 193 192 193 191 192 194 192 187 183 181 181 181 180 182 184 185 188 193 197 198 203 212 220 226 227 223 216 215 223 231 245 259 268 278 292 300
294 293 292 293 294 294 293 293 293 294 293 292 289 286 281 279 278 276 274 269 264 262 261 260 258 254 254 255 254 252 249 243 239 236 230 229 228 227 229 227 214 206 207 206 202 200 197 195 194 193 192 192 191 192 193 191 189 186 182 181 182 183 186 189 189 189 192 194 198 208 217 221 220 216 215 216 220 228 240 255 269 284 304 316 312
293 291 291 291 291 291 291 290 289 290 290 289 287 284 280 278 275 272 270 267 263 261 258 257 256 253 251 253 251 248 245 239 235 232 226 224 223 221 224 225 214 204 201 197 193 191 188 187 189 191 193 193 192 191 191 189 190 187 180 178 181 183 185 188 187 187 191 196 203 213 216 215 213 212 212 217 222 228 241 263 285 302 319 322 304
292 290 289 289 289 289 289 288 286 287 287 286 283 280 278 276 274 272 271 267 263 261 260 257 256 254 252 250 246 241 240 239 238 236 230 225 221 217 218 219 211 203 198 192 185 182 180 180 183 187 191 194 190 184 182 180 179 177 174 173 176 178 178 181 185 190 195 201 207 211 211 209 208 208 210 215 220 226 243 273 297 309 314 307 286
290 288 287 287 288 289 289 288 287 285 283 283 283 282 279 274 268 267 268 268 266 263 261 259 258 256 254 252 247 244 245 247 247 243 234 226 221 218 218 217 211 202 193 185 180 177 177 178 182 184 185 185 182 176 173 170 165 163 165 169 173 175 177 183 190 194 199 204 207 207 207 205 203 203 206 209 212 219 236 268 299 305 299 289 275
286 286 287 287 287 289 289 288 288 286 283 281 278 277 280 280 274 268 269 272 273 269 264 261 259 256 253 253 252 250 249 249 249 245 235 223 219 219 218 218 213 200 186 179 178 180 181 180 183 184 182 179 177 174 172 169 164 160 161 168 174 178 181 187 192 194 197 200 203 204 203 201 200 200 200 200 207 219 231 274 299 295 289 283 276
282 283 285 286 286 287 286 286 286 283 280 277 275 280 292 299 295 287 281 279 276 273 268 263 260 256 253 252 252 250 248 244 240 239 232 222 219 219 218 219 215 199 183 180 181 185 186 185 183 183 181 178 176 174 172 171 167 165 166 168 172 179 183 186 189 192 194 196 198 199 199 198 197 195 193 191 199 220 251 287 296 293 290 284 277
280 281 284 284 284 283 282 282 281 279 279 283 291 297 298 295 292 291 290 285 277 270 265 262 259 256 254 252 251 249 247 241 233 231 227 221 220 219 217 219 216 198 183 182 186 188 188 188 186 183 181 180 178 175 174 174 172 173 174 172 172 178 183 185 188 192 194 196 197 196 195 194 192 187 185 186 191 209 249 277 288 289 287 282 277
281 280 281 282 282 280 279 278 278 278 282 286 288 287 284 279 275 277 282 284 279 269 262 259 257 256 256 254 251 250 248 240 230 226 225 223 220 218 216 221 219 202 189 187 189 187 186 187 185 182 181 182 180 177 176 176 176 177 176 174 174 178 181 183 187 190 191 192 194 193 192 191 188 183 180 181 186 205 238 264 277 278 279 279 278
282 280 280 280 280 278 276 276 275 275 276 277 277 276 274 273 270 266 267 273 277 271 262 256 252 252 255 255 252 248 246 240 231 224 222 222 219 216 214 218 217 205 195 191 190 188 186 185 182 180 181 181 181 181 179 177 176 177 174 171 174 178 179 180 185 189 190 190 191 192 190 187 184 180 177 179 186 207 232 252 266 271 276 279 276
284 282 281 280 278 276 275 273 272 272 272 272 272 272 270 268 268 269 271 273 275 274 271 264 254 249 250 252 252 248 244 240 233 223 219 220 218 214 212 214 212 205 198 193 189 187 185 184 182 181 181 182 182 183 182 179 178 178 177 176 177 178 179 182 185 187 188 190 190 189 187 184 180 175 175 184 198 215 235 253 265 273 277 276 273
286 284 282 281 279 277 275 273 271 271 271 270 268 266 265 263 262 265 267 268 270 273 273 269 262 252 246 248 251 250 246 242 236 225 218 218 218 215 214 216 212 204 198 191 186 183 182 182 182 180 180 181 181 182 183 181 178 175 175 178 179 180 182 186 187 187 187 188 188 186 183 179 176 173 178 190 202 217 239 256 267 273 273 271 273
287 284 283 282 280 278 275 274 273 271 269 266 262 260 260 261 262 265 269 272 276 279 276 267 255 247 242 244 247 246 243 242 237 226 215 214 217 216 216 217 214 204 194 187 182 180 179 180 180 178 178 180 180 179 180 180 177 173 173 175 178 180 182 184 186 188 188 187 184 183 180 174 173 178 183 190 202 220 239 252 264 271 269 266 271
288 285 283 282 281 279 277 275 275 273 270 268 267 267 269 271 271 271 272 273 274 275 276 273 262 251 247 246 244 241 235 232 230 220 208 207 213 216 216 216 212 201 188 179 176 176 175 172 172 175 177 178 177 175 175 175 175 174 174 174 175 177 180 183 185 187 187 185 181 179 175 172 174 180 186 192 206 224 239 255 266 266 261 262 271
288 285 283 281 279 277 276 274 272 270 268 267 266 266 265 264 264 262 260 262 264 264 264 264 261 257 253 248 241 233 225 221 220 213 203 201 207 213 217 216 205 188 176 171 170 170 166 164 168 175 176 175 175 175 175 174 173 173 174 174 175 177 181 184 185 185 183 181 179 176 174 175 177 181 187 196 211 228 244 258 263 260 261 271 279
289 285 281 280 277 275 275 273 269 267 267 266 266 264 260 260 261 258 253 251 253 255 255 256 257 257 255 250 243 234 226 222 219 213 204 200 203 209 215 210 191 173 166 163 162 160 160 163 171 177 176 174 174 174 173 171 171 171 172 174 176 178 180 181 182 182 180 180 180 178 177 179 182 184 188 197 210 230 245 253 260 267 276 284 284
292 287 283 280 276 272 268 266 265 266 266 265 265 266 266 269 271 270 267 265 262 259 255 253 254 256 255 252 247 240 232 224 218 211 201 195 196 198 195 184 171 163 160 158 157 160 164 170 176 179 177 175 173 170 169 169 170 171 172 174 175 177 177 177 178 180 181 182 183 182 182 184 186 188 191 199 216 235 251 263 271 280 285 285 282
294 289 285 281 277 271 263 259 260 262 260 259 259 261 261 264 266 267 266 265 262 258 254 251 251 253 251 248 247 244 236 222 205 190 176 169 167 163 157 155 154 155 157 160 165 171 174 175 177 178 177 175 173 171 171 171 171 171 172 173 174 175 175 176 178 181 183 185 187 186 187 189 192 194 199 212 231 249 267 278 282 285 286 282 278
300 295 290 285 280 275 267 260 256 254 253 254 256 257 258 260 263 265 265 262 258 254 251 250 249 246 241 240 242 239 220 183 162 152 145 141 140 138 139 144 149 152 157 164 170 175 175 173 170 169 168 168 168 168 169 169 171 172 172 172 173 174 176 179 182 185 187 189 190 191 193 195 197 201 209 225 245 261 276 283 283 282 280 277 273
309 304 300 295 290 285 278 268 257 251 253 256 256 257 257 257 258 263 268 270 266 257 248 243 238 227 214 208 198 169 142 133 134 134 131 130 130 131 135 143 151 156 160 163 166 167 167 165 162 160 160 160 162 164 165 166 168 171 171 172 173 175 178 182 185 187 191 193 194 195 198 199 202 208 219 239 261 270 275 280 280 277 273 271 272
320 316 312 309 307 308 305 292 270 253 250 251 253 255 258 257 256 259 263 265 261 243 208 176 162 152 141 133 130 127 122 120 123 125 125 127 129 131 134 142 149 152 153 154 156 158 159 160 159 158 157 157 158 159 161 162 163 165 166 168 169 171 175 180 185 189 194 196 198 201 201 202 209 218 231 260 278 277 276 277 276 273 271 273 278
333 331 329 327 327 332 337 335 320 290 271 265 264 269 274 274 272 275 291 84 93 98 100 100 105 109 108 107 111 113 111 111 115 119 120 125 131 136 140 142 143 142 143 146 149 151 152 153 155 154 154 154 155 156 157 159 161 163 164 166 168 173 178 183 188 193 196 198 204 208 209 211 219 229 250 276 282 278 278 278 274 272 275 280 285
345 343 342 342 344 348 353 358 3 6 5 7 16 23 29 38 46 54 65 75 81 88 92 92 93 97 100 101 105 109 112 114 117 118 121 126 132 139 142 142 140 140 141 142 143 143 144 146 148 150 150 152 154 155 156 159 161 162 164 167 171 177 182 186 190 193 197 203 209 215 219 224 231 244 267 281 282 280 280 278 276 279 286 289 288
357 355 352 352 355 359 0 4 10 16 18 22 28 34 40 46 49 51 61 70 75 80 85 88 91 95 99 101 105 110 116 121 123 124 125 127 130 135 139 139 138 138 138 137 137 139 141 142 144 147 148 149 151 153 155 157 159 161 163 167 172 179 185 188 190 194 201 208 215 222 227 232 244 263 277 282 284 285 282 280 283 290 293 291 288
6 6 6 4 5 7 10 13 17 19 22 26 30 32 37 43 46 50 58 64 68 72 78 83 87 92 97 102 105 109 114 119 122 123 122 123 126 131 133 134 134 134 133 133 135 137 139 141 143 145 147 149 151 153 155 156 158 161 164 169 175 181 184 184 188 199 208 214 221 225 228 238 263 277 281 284 286 284 281 284 294 299 295 288 289
12 13 15 15 15 16 18 20 22 23 25 28 30 33 40 46 50 53 57 59 60 65 73 80 86 92 96 99 102 105 109 113 115 116 119 123 127 129 130 130 130 131 131 131 133 136 138 140 142 144 147 149 151 152 155 158 161 165 169 172 174 178 181 184 192 202 209 215 221 226 234 257 273 276 278 283 285 281 281 291 301 301 296 291 292